Regional Weather Roundup
Issued by NWS Sterling, VA

Home | Current Version | Previous Version | Graphics & Text | Print | Product List | Glossary On
Versions: 1 2 3 4 5 6 7 8 9 10 11 12 13 14 15 16 17 18 19 20 21 22 23 24 25 26 27
000
ASUS41 KLWX 241110
RWRLWX

REGIONAL WEATHER ROUNDUP
NATIONAL WEATHER SERVICE BALTIMORE MD/WASHINGTON DC
700 AM EDT FRI OCT 24 2014

Note: "FAIR" indicates few or no clouds below 12,000 feet
with no significant weather and/or obstructions to visibility.
 TC=TEMPERATURE CELSIUS

 * =Non NWS site. Station does not report precipitation (e.g. rain,
    snow, etc.), thunder, or fog.

DCZ001-MDZ009-015-VAZ040>042-051-053>054-241200-
WASHINGTON METRO

CITY           SKY/WX    TMP DP  RH WIND       PRES   REMARKS
WASHINGTON NAT PTCLDY    56  42  59 NW9       29.96S
DULLES         PTCLDY    50  42  74 NW7       29.98R
ANDREWS AFB    CLEAR     53  43  68 NW15      29.94S
FT BELVOIR     CLEAR     53  43  67 W12       29.97R
QUANTICO       PTCLDY    54  42  64 NW13      29.98S
COLLEGE PARK*  CLEAR     54  43  66 W6        29.95R
LEESBURG*      CLEAR     52  45  76 NW12      29.99R
MANASSAS*      CLEAR     54  45  71 NW10G17   29.98R
GAITHERSBURG*  CLEAR     50  41  71 NW13G20   29.99S

$$

MDZ006>007-011-014-241200-
BALTIMORE METRO

CITY           SKY/WX    TMP DP  RH WIND       PRES   REMARKS
BWI AIRPORT    PTCLDY    53  43  68 W9        29.92S
MD SCIENCE CTR   N/A     56  43  61 MISG      29.93R
MARTIN STATE   PTCLDY    55  46  71 W6        29.92S
ANNAPOLIS      CLEAR     54  43  66 W7        29.92R
FORT MEADE*    CLEAR     46  43  87 CALM      29.96S

$$

MDZ012-015-019>023-241200-
MARYLAND EASTERN SHORE

CITY           SKY/WX    TMP DP  RH WIND       PRES   REMARKS
OCEAN CITY     PTCLDY    52  45  77 NW6       29.88R
SALISBURY      PTCLDY    56  43  61 NW8       29.89R
BAY BRIDGE AP*   N/A     54  43  66 W12       29.92S
CAMBRIDGE*     CLEAR     55  43  62 NW12G18   29.90S
EASTON*        PTCLDY    55  46  71 CALM      29.95R

$$

MDZ017>025-241200-
SOUTHERN MARYLAND

CITY           SKY/WX    TMP DP  RH WIND       PRES   REMARKS
PATUXENT RIVER PTCLDY    53  42  66 NW10      29.93R
ST INIGOES     CLEAR     54  41  61 NW7       29.93R
LEONARDTOWN*   CLEAR     50  41  71 W6        29.95S

$$

MDZ003>005-241200-
NORTH CENTRAL MARYLAND

CITY           SKY/WX    TMP DP  RH WIND       PRES   REMARKS
FREDERICK*     NOT AVBL
HAGERSTOWN APT CLEAR     51  41  68 NW6       30.00R
WESTMINSTER*   CLEAR     52  45  76 NW10      29.94R

$$

MDZ501>502-241200-
WESTERN MARYLAND

CITY           SKY/WX    TMP DP  RH WIND       PRES   REMARKS
OAKLAND*       CLOUDY    39 N/A N/A NW7       30.07R
CUMBERLAND*    PTCLDY    52  41  66 NW9G17    30.09R

$$

VAZ025>031-241200-
SHENANDOAH VALLEY

CITY           SKY/WX    TMP DP  RH WIND       PRES   REMARKS
WINCHESTER*    CLEAR     50  37  62 NW10G16   30.02R
FRONT ROYAL*   FAIR      50  41  71 N5        30.02R
LURAY*         FAIR      52  43  71 S5        30.03R
NEW MARKET*    FAIR      41  39  95 CALM      30.03R
STAUNTON*      PTCLDY    37  33  86 CALM      30.06R
WAYNESBORO*    FAIR      46  39  75 SW7       30.04R

$$

WVZ021-048>050-054>055-241200-
EASTERN WEST VIRGINIA PANHANDLE

CITY           SKY/WX    TMP DP  RH WIND       PRES   REMARKS
MARTINSBURG    CLEAR     52  40  63 VRB6      30.01R
PETERSBURG*    PTCLDY    37  35  93 CALM      30.08R FOG

$$

VAZ036>039-050-241200-
CENTRAL FOOTHILLS

CITY           SKY/WX    TMP DP  RH WIND       PRES   REMARKS
CHARLOTTESVILL PTCLDY    51  40  65 SW3       30.01R
CULPEPER*      CLEAR     54  43  66 NW6       30.00S
ORANGE*        PTCLDY    43  41  93 CALM      30.01R FOG
GORDONSVILLE*  FAIR      45  40  83 CALM      30.00R
WARRENTON*     FAIR      53  47  82 NW3       29.98S

$$

VAZ055>057-241200-
NORTH AND CENTRAL PIEDMONT

CITY           SKY/WX    TMP DP  RH WIND       PRES   REMARKS
FREDERICKSBRG* CLEAR     53  44  70 NW6       29.97S
STAFFORD*      CLEAR     51  41  69 NW6       30.02R

$$

NCZ024-NYZ072-PAZ021-071-VAZ022-071-241200-
OTHER REGIONAL OBSERVATIONS

CITY           SKY/WX    TMP DP  RH WIND       PRES   REMARKS
NEW YORK CITY  MOCLDY    51  42  71 VRB6      29.83R
PHILADELPHIA   MOCLDY    57  44  62 NW15      29.86R
PITTSBURGH     MOCLDY    40  37  89 CALM      30.09R
ROANOKE        MOCLDY    46  39  76 W5        30.10R
RICHMOND       PTCLDY    50  42  74 W7        29.99R
RALEIGH        MOCLDY    44  40  85 CALM      30.02S

$$

ANZ530>537-241200-
MARINE OBSERVATIONS

STATION/POSITION TIME  TEMP    WIND        PRES
                       AIR SEA DIR/SP/G
                 (UTC) (F)     (DEG/KT/KT) (MB)
THOMAS PT LIGHT  1100   54 62  290/ 13/ 14 1014.2R
BALT KEY BRIDGE  1100   57     290/ 16/ 18 1012.7R
COVE POINT       1100   55     310/ 15/ 19 1013.0F
LEWISETTA        1100   57 59  320/ 13/ 16 1013.5F
SOLOMONS ISLAND  1100      63                N/A
PINEY POINT      1100          330/ 23/ 25   N/A

$$




USA.gov is the U.S. government's official web portal to all federal, state and local government web resources and services.